This is the latest recevied weather packets stored in our database for station/object KB9HUO. If no packets are shown the sender has not sent any weather packets the latest 10 day(s).
| Time | Temp. | Humidity | Pressure | Rain* | Wind** | Luminosity | Snow |
|---|---|---|---|---|---|---|---|
| 1777936859 | 23.33° C | 47% | 1005.9 hPa | 0 mm | - | 27 W/m² | - |
| 1777936555 | 23.89° C | 47% | 1006.4 hPa | 0 mm | - | 31 W/m² | - |
| 1777936251 | 23.89° C | 47% | 1006.4 hPa | 0 mm | - | 39 W/m² | - |
| 1777935947 | 23.89° C | 47% | 1006.4 hPa | 0 mm | - | 40 W/m² | - |
| 1777935646 | 23.89° C | 47% | 1006.4 hPa | 0 mm | - | 39 W/m² | - |
| 1777935343 | 23.89° C | 46% | 1006.5 hPa | 0 mm | - | 40 W/m² | - |
| 1777935040 | 23.89° C | 45% | 1006.5 hPa | 0 mm | - | 53 W/m² | - |
| 1777934737 | 24.44° C | 46% | 1006.6 hPa | 0 mm | - | 66 W/m² | - |
| 1777934434 | 24.44° C | 46% | 1006.7 hPa | 0 mm | - | 87 W/m² | - |
| 1777934131 | 24.44° C | 45% | 1006.9 hPa | 0 mm | - | 94 W/m² | - |
| 1777933826 | 23.89° C | 46% | 1006.7 hPa | 0 mm | - | 79 W/m² | - |
| 1777933523 | 23.89° C | 45% | 1006.9 hPa | 0 mm | - | 67 W/m² | - |
| 1777933221 | 24.44° C | 45% | 1007.1 hPa | 0 mm | - | 68 W/m² | - |
| 1777932918 | 24.44° C | 45% | 1007 hPa | 0 mm | - | 76 W/m² | - |
| 1777932615 | 23.89° C | 45% | 1006.9 hPa | 0 mm | - | 79 W/m² | - |
| 1777932311 | 24.44° C | 45% | 1006.7 hPa | 0 mm | - | 83 W/m² | - |
| 1777932009 | 24.44° C | 45% | 1007.1 hPa | 0 mm | - | 86 W/m² | - |
| 1777931705 | 24.44° C | 46% | 1007.5 hPa | 0 mm | - | 87 W/m² | - |
| 1777931403 | 24.44° C | 45% | 1007.5 hPa | 0 mm | - | 89 W/m² | - |
| 1777931098 | 25° C | 45% | 1007.7 hPa | 0 mm | - | 99 W/m² | - |
| 1777930795 | 25° C | 46% | 1007.7 hPa | 0 mm | - | 112 W/m² | - |
| 1777930490 | 25° C | 45% | 1007.6 hPa | 0 mm | - | 124 W/m² | - |
| 1777930188 | 24.44° C | 45% | 1007.7 hPa | 0 mm | - | 109 W/m² | - |
| 1777929884 | 24.44° C | 45% | 1007.8 hPa | 0 mm | - | 96 W/m² | - |
| 1777929582 | 24.44° C | 45% | 1007.8 hPa | 0 mm | - | 103 W/m² | - |
* Rain latest hour (hover to see other rain measurements)
** Current wind speed in m/s (hover to see current wind gust speed)